This is the latest recevied weather packets stored in our database for station/object IK6IHU-3. If no packets are shown the sender has not sent any weather packets the latest 1 day(s).
| Time | Temp. | Humidity | Pressure | Rain* | Wind** | Luminosity | Snow |
|---|---|---|---|---|---|---|---|
| 1777965202 | 16.11° C | 64% | 1014.5 hPa | 0 mm | 0.45 m/s, 48° | 0 W/m² | - |
| 1777965142 | 16.11° C | 64% | 1014.4 hPa | 0 mm | 0.45 m/s, 54° | 0 W/m² | - |
| 1777965082 | 16.67° C | 63% | 1014.4 hPa | 0 mm | 0 m/s | 0 W/m² | - |
| 1777965023 | 16.11° C | 62% | 1014.4 hPa | 0 mm | 0 m/s | 0 W/m² | - |
| 1777964963 | 16.11° C | 62% | 1014.4 hPa | 0 mm | 0.45 m/s, 60° | 0 W/m² | - |
| 1777964902 | 16.11° C | 62% | 1014.2 hPa | 0 mm | 0.45 m/s, 63° | 0 W/m² | - |
| 1777964842 | 16.11° C | 62% | 1014.5 hPa | 0 mm | 0 m/s | 0 W/m² | - |
| 1777964782 | 16.11° C | 61% | 1014.4 hPa | 0 mm | 0.45 m/s, 68° | 0 W/m² | - |
| 1777964722 | 16.11° C | 61% | 1014.4 hPa | 0 mm | 0.45 m/s, 78° | 0 W/m² | - |
| 1777964662 | 16.11° C | 60% | 1014.5 hPa | 0 mm | 0.45 m/s, 86° | 0 W/m² | - |
| 1777964603 | 16.11° C | 60% | 1014.4 hPa | 0 mm | 0.45 m/s, 92° | 0 W/m² | - |
| 1777964542 | 16.11° C | 60% | 1014.5 hPa | 0 mm | 0.45 m/s, 94° | 0 W/m² | - |
| 1777964482 | 16.11° C | 60% | 1014.5 hPa | 0 mm | 0.45 m/s, 96° | 0 W/m² | - |
| 1777964422 | 16.11° C | 60% | 1014.6 hPa | 0 mm | 0.45 m/s, 98° | 0 W/m² | - |
| 1777964362 | 16.11° C | 59% | 1014.4 hPa | 0 mm | 0.45 m/s, 98° | 0 W/m² | - |
| 1777964302 | 16.11° C | 61% | 1014.5 hPa | 0 mm | 0 m/s | 0 W/m² | - |
| 1777964242 | 16.11° C | 61% | 1014.6 hPa | 0 mm | 0 m/s | 0 W/m² | - |
| 1777964183 | 16.11° C | 62% | 1014.7 hPa | 0 mm | 0 m/s | 0 W/m² | - |
| 1777964122 | 16.11° C | 61% | 1014.5 hPa | 0 mm | 0 m/s | 0 W/m² | - |
| 1777964063 | 16.11° C | 61% | 1014.4 hPa | 0 mm | 0 m/s | 0 W/m² | - |
| 1777964002 | 16.11° C | 61% | 1014.6 hPa | 0 mm | 0.45 m/s, 96° | 0 W/m² | - |
| 1777963942 | 16.11° C | 61% | 1014.4 hPa | 0 mm | 0.45 m/s, 98° | 0 W/m² | - |
| 1777963882 | 16.11° C | 62% | 1014.3 hPa | 0 mm | 0.89 m/s, 97° | 0 W/m² | - |
| 1777963822 | 16.11° C | 63% | 1014.4 hPa | 0 mm | 0.45 m/s, 97° | 0 W/m² | - |
| 1777963762 | 16.11° C | 63% | 1014.4 hPa | 0 mm | 0 m/s | 0 W/m² | - |
* Rain latest hour (hover to see other rain measurements)
** Current wind speed in m/s (hover to see current wind gust speed)